Regional Weather Roundup
Issued by NWS New Orleans/Baton Rouge, LA

Home | Current Version | Previous Version | Graphics & Text | Print | Product List | Glossary On
Versions: 1 2 3 4 5 6 7 8 9 10 11 12 13 14 15 16 17 18 19 20 21 22 23 24 25 26 27 28 29 30 31 32 33 34 35 36 37 38 39 40 41 42 43 44 45 46 47 48 49 50
708
ASUS44 KLIX 011310
RWRLIX
NEW ORLEANS REGIONAL WEATHER ROUNDUP
NATIONAL WEATHER SERVICE NEW ORLEANS LA
800 AM CDT MON SEP 01 2014

NOTE: "FAIR" INDICATES FEW OR NO CLOUDS BELOW 12,000 FEET WITH NO
      SIGNIFICANT WEATHER AND/OR OBSTRUCTIONS TO VISIBILITY.
      SKY/WX - SKY CONDITION AND SIGNIFICANT WEATHER.
      TMP - AIR TEMPERATURE.     DP    - DEWPOINT TEMPERATURE.
      RH  - RELATIVE HUMIDITY.   PRES  - PRESSURE.
      HI  - HEAT INDEX.          WCI   - WIND CHILL INDEX.

*  THESE STATIONS ARE NOT NWS OR FAA STATIONS AND ARE NOT UNDER
   NWS QUALITY CONTROL.

LAZ038-040-048-061>063-065>067-069-011400-
SOUTHEAST LOUISIANA

CITY           SKY/WX    TMP DP  RH WIND       PRES   REMARKS
N.O. AUDUBON   NOT AVBL
N.O. INTL ARPT PTSUNNY   83  76  79 SE7       30.04R
N.O. LAKEFRONT SUNNY     83  78  85 E6        30.05R
N.O. DOWNTOWN*   N/A     82  73  74 SE6       30.05R
SLIDELL        SUNNY     80  75  84 CALM      30.05R
BATON ROUGE    SUNNY     77  75  93 E5        30.04R
BOOTHVILLE     MOSUNNY   84  77  79 SE7       30.05R
BELLE CHASSE   SUNNY     84  76  76 SE6       30.04R THUNDER
BOGALUSA*        N/A     75  72  90 CALM      30.08R
GALLIANO*      NOT AVBL
NEW ROADS*       N/A     77  76  98 CALM      30.04R FOG
GONZALES*        N/A     78  78 100 CALM      30.03R
HAMMOND*       SUNNY     79  75  89 E5        30.07R
HOUMA*         MOSUNNY   79  75  89 E2        30.03R
PORT FOURCHON* MOSUNNY   86  75  70 SE12      30.03S HX  95

$$

MSZ070-080>082-011400-
SOUTHERN MISSISSIPPI

CITY           SKY/WX    TMP DP  RH WIND       PRES   REMARKS
MCCOMB         FOG       74  73  97 CALM      30.07R VSB 1/4
GULFPORT       PTSUNNY   82  76  81 SE8       30.06R
BILOXI         MOSUNNY   84  75  75 S8        30.06S
PASCAGOULA     MOSUNNY   78  75  90 CALM      30.07R
STENNIS ARPT*  MOSUNNY  N/A N/A N/A CALM      30.06

$$

COASTAL OBSERVATIONS
LAKE AND NEARSHORE STATIONS

STATION/POSITION TIME  TEMP    WIND        PRES    WAVE
                       AIR SEA DIR/SP/G            HT/PER
                 (UTC) (F)     (DEG/KT/KT) (MB)    (FT/S)
PASCAGOULA       1300   86     150/  6/ 11 1017.6
WAVELAND YACHT   1300   84     150/ 10/ 13 1017.0
GRAND ISLE       1300   85 84  140/  8/ 13 1017.5
SOUTHWEST PASS   1300   86 90  140/ 12/ 15 1017.4
NEW CANAL        1300   83 81   CALM  /  2 1017.7
SHELL BEACH      1300   83 80  130/  7/ 10 1017.3

OFFSHORE STATIONS

STATION/POSITION TIME  TEMP    WIND        PRES    WAVE
                       AIR SEA DIR/SP/G            HT/PER
                 (UTC) (F)     (DEG/KT/KT) (MB)    (FT/S)
64 S DAUPHIN ISL 1300   85 85  130/ 14/ 17 1018.0

$$




USA.gov is the U.S. government's official web portal to all federal, state and local government web resources and services.